Location: Kaarina
(60.4167°N, 22.4167°E)
Time: 15:27:46
(UTC+03:00)

ERS-2 - Pass Details

Date: 24 August 2019
Orbit: 496 x 499 km, 98.5° (Epoch: 22 October)

Event Time Altitude Azimuth Distance (km) Brightness Sun altitude
Exits shadow 23:53:49 13° 94° (E) 1,517 4.3 -15.9°
Maximum altitude 23:55:57 21° 52° (NE) 1,186 4.1 -16.1°
Drops below altitude 10° 23:58:43 10° 3° (N) 1,714 5.8 -16.2°
Sets 00:01:10 0° 347° (NNW) 2,602 7.4 -16.3°
